Change the Weather History Date:

Monday, May 20, 2013

  Actual Average Record
Temperature  
Mean Temperature 57 °F -  
Max Temperature 70 °F 70 °F 86 °F (2005)
Min Temperature 45 °F 42 °F 27 °F (1960)
Degree Days  
Heating Degree Days 8    
Growing Degree Days 7 (Base 50)    
Moisture  
Dew Point 23 °F    
Average Humidity 31    
Maximum Humidity 58    
Minimum Humidity 14    
Precipitation  
Precipitation 0.00 in - - ()
Sea Level Pressure  
Sea Level Pressure 29.74 in    
Wind  
Wind Speed 12 mph (NW)    
Max Wind Speed 23 mph    
Max Gust Speed 31 mph    
Visibility 10 miles    
Events      
Averages and records for this station are not official NWS values.
T = Trace of Precipitation, MM = Missing Value Source: NWS Daily Summary

Daily Weather History Graph

Daily Weather History Graph

Search for Another Location

Airport or City:

Trip Planner

Search our weather history database for the weather conditions in past years. The results will help you decide how hot, cold, wet, or windy it might be!

Date:

Astronomy

May. 20, 2013 Rise Set
Actual Time 5:51 AM MDT 8:02 PM MDT
Civil Twilight 5:23 AM MDT 8:31 PM MDT
Nautical Twilight 4:47 AM MDT 9:06 PM MDT
Astronomical Twilight 4:09 AM MDT 9:45 PM MDT
Moon 3:22 PM MDT (5/20) 2:38 AM MDT (5/20)
Length of Visible Light 15h 08m
Length of Day
14h 11m
Waxing Gibbous, 75% of the Moon is Illuminated
May 20
Waxing Gibbous
May 24
Full
May 31
Last Quarter
Jun 8
New
Jun 16
First Quarter

Hourly Weather History & Observations

Time (MDT) Temp. Windchill Dew Point Humidity Pressure Visibility Wind Dir Wind Speed Gust Speed Precip Events Conditions
12:53 AM 46.0 °F 40.2 °F 32.0 °F 58% 29.74 in 10.0 mi WNW 12.7 mph - N/A   Clear
1:53 AM 48.0 °F - 30.9 °F 52% 29.73 in 10.0 mi WNW 23.0 mph 31.1 mph N/A   Scattered Clouds
2:53 AM 46.9 °F - 32.0 °F 56% 29.73 in 10.0 mi West 10.4 mph - N/A   Mostly Cloudy
3:53 AM 45.0 °F 41.2 °F 30.0 °F 56% 29.72 in 10.0 mi WSW 6.9 mph - N/A   Clear
6:53 AM 46.9 °F - 28.0 °F 48% 29.76 in 10.0 mi WSW 4.6 mph - N/A   Clear
8:53 AM 57.0 °F - 21.9 °F 26% 29.77 in 10.0 mi West 18.4 mph 27.6 mph N/A   Clear
9:53 AM 59.0 °F - 21.0 °F 23% 29.75 in 10.0 mi WNW 15.0 mph 23.0 mph N/A   Mostly Cloudy
10:53 AM 61.0 °F - 19.9 °F 21% 29.74 in 10.0 mi Variable 5.8 mph 20.7 mph N/A   Clear
11:53 AM 63.0 °F - 19.9 °F 19% 29.74 in 10.0 mi NW 11.5 mph 20.7 mph N/A   Clear
12:53 PM 66.0 °F - 19.9 °F 17% 29.72 in 10.0 mi West 12.7 mph 20.7 mph N/A   Partly Cloudy
1:53 PM 63.0 °F - 18.0 °F 18% 29.72 in 10.0 mi NNE 5.8 mph - N/A   Mostly Cloudy
2:53 PM 64.9 °F - 15.1 °F 15% 29.70 in 10.0 mi Calm Calm - N/A   Partly Cloudy
3:53 PM 64.9 °F - 16.0 °F 15% 29.70 in 10.0 mi WSW 3.5 mph - N/A   Mostly Cloudy
4:53 PM 69.1 °F - 17.1 °F 14% 29.69 in 10.0 mi WSW 18.4 mph 26.5 mph N/A   Mostly Cloudy
5:53 PM 66.0 °F - 16.0 °F 15% 29.72 in 10.0 mi West 18.4 mph 26.5 mph N/A   Partly Cloudy
6:53 PM 60.1 °F - 21.0 °F 22% 29.74 in 10.0 mi NNW 15.0 mph - N/A   Clear
7:53 PM 55.0 °F - 25.0 °F 31% 29.76 in 10.0 mi North 16.1 mph 23.0 mph N/A   Clear
8:53 PM 53.1 °F - 25.0 °F 34% 29.79 in 10.0 mi North 6.9 mph - N/A   Clear
9:53 PM 52.0 °F - 24.1 °F 34% 29.80 in 10.0 mi North 8.1 mph - N/A   Partly Cloudy
10:53 PM 50.0 °F - 24.1 °F 36% 29.81 in 10.0 mi ENE 6.9 mph - N/A   Scattered Clouds
11:53 PM 50.0 °F - 24.1 °F 36% 29.81 in 10.0 mi ENE 4.6 mph - N/A   Mostly Cloudy